Torna al catalogo

CZ-6A DEB

AttivoPO
NORAD 54579·DEBRIS·🇨🇳 China

Lanciato Nov 11, 2022 da Taiyuan Satellite Launch Center

Loading…

Prossimi Passaggi (prossime 24 ore)

TLE

AggiornatoSource: Space-Track

Epoca: Sep 14, 2026, 11:03 UTC

1 54579U 22151MF  26257.46051611  .00027291  00000-0  21651-2 0  9995
2 54579  98.5400 334.2862 0035397 300.2090  59.5627 14.99988341125601

Traccia CZ-6A DEB in tempo reale con AllMySat

Download on the App Store